Weather History for South Hill, VA

Change the Weather History Date:

Wednesday, December 19, 2012

  Actual Average (KEMV) Record (KEMV)
Temperature  
Mean Temperature 48 °F -  
Max Temperature 64 °F 50 °F 77 °F (1984)
Min Temperature 32 °F 28 °F 16 °F (1989)
Degree Days  
Heating Degree Days 17    
Moisture  
Dew Point 38 °F    
Average Humidity 73    
Maximum Humidity 100    
Minimum Humidity 40    
Precipitation  
Precipitation 0.00 in - - ()
Sea Level Pressure  
Sea Level Pressure 30.04 in    
Wind  
Wind Speed 3 mph (SW)    
Max Wind Speed 10 mph    
Max Gust Speed 16 mph    
Visibility 10 miles    
Events      
Averages and records for this station are not official NWS values.
T = Trace of Precipitation, MM = Missing Value Source: NWS Daily Summary

Daily Weather History Graph

Daily Weather History Graph

Search for Another Location

Airport:

Trip Planner

Search our weather history database for the weather conditions in past years. The results will help you decide how hot, cold, wet, or windy it might be!

Date:

Astronomy

Dec. 19, 2012 Rise Set
Actual Time 7:20 AM EST 4:59 PM EST
Civil Twilight 6:51 AM EST 5:28 PM EST
Nautical Twilight 6:18 AM EST 6:00 PM EST
Astronomical Twilight 5:47 AM EST 6:32 PM EST
Moon 11:38 AM EST (12/19) No Moon Set
Length of Visible Light 10h 36m
Length of Day
9h 39m
Waxing Crescent, 45% of the Moon is Illuminated
Dec 19
Waxing Crescent
Dec 20
First Quarter
Dec 28
Full
Jan 4
Last Quarter
Jan 11
New

Hourly Weather History & Observations

Time (EST) Temp. Windchill Dew Point Humidity Pressure Visibility Wind Dir Wind Speed Gust Speed Precip Events Conditions
12:15 AM 35.6 °F - 33.8 °F 93% 29.92 in 10.0 mi Calm Calm - N/A   Clear
12:35 AM - - - N/A% 29.92 in 10.0 mi Calm Calm - N/A   Clear
12:55 AM 32.0 °F - 30.2 °F 93% 29.92 in 10.0 mi Calm Calm - N/A   Clear
1:15 AM - - - N/A% 29.91 in 10.0 mi Calm Calm - N/A   Clear
1:35 AM - - - N/A% 29.92 in 10.0 mi Calm Calm - N/A   Clear
1:55 AM 32.0 °F - 30.2 °F 93% 29.94 in 10.0 mi Calm Calm - N/A   Clear
2:15 AM - - - N/A% 29.94 in 10.0 mi Calm Calm - N/A   Clear
2:35 AM - - - N/A% 29.94 in 10.0 mi SSW 3.5 mph - N/A   Clear
2:55 AM - - - N/A% 29.95 in 10.0 mi SW 3.5 mph - N/A   Clear
3:15 AM 32.0 °F 27.5 °F 32.0 °F 100% 29.94 in 10.0 mi SSW 4.6 mph - N/A   Clear
3:35 AM - - - N/A% 29.94 in 10.0 mi SW 4.6 mph - N/A   Clear
3:55 AM - - - N/A% 29.95 in 10.0 mi SSW 5.8 mph - N/A   Clear
4:15 AM - - - N/A% 29.95 in 10.0 mi SW 5.8 mph - N/A   Clear
4:35 AM - - - N/A% 29.95 in 10.0 mi SW 5.8 mph - N/A   Clear
4:55 AM - - - N/A% 29.95 in 10.0 mi SW 5.8 mph - N/A   Clear
5:15 AM 32.0 °F 25.6 °F 32.0 °F 100% 29.96 in 10.0 mi SW 6.9 mph - N/A   Clear
5:35 AM 32.0 °F 26.4 °F 30.2 °F 93% 29.97 in 10.0 mi SW 5.8 mph - N/A   Clear
5:55 AM 33.8 °F 28.6 °F - N/A% 29.97 in 10.0 mi SW 5.8 mph - N/A   Clear
6:15 AM 33.8 °F 29.6 °F 33.8 °F 100% 29.98 in 10.0 mi SSW 4.6 mph - N/A   Clear
6:35 AM 33.8 °F 28.6 °F - N/A% 29.98 in 10.0 mi SSW 5.8 mph - N/A   Clear
6:55 AM 33.8 °F 30.8 °F - N/A% 29.98 in 10.0 mi SSW 3.5 mph - N/A   Clear
7:15 AM 33.8 °F 30.8 °F - N/A% 29.99 in 10.0 mi SSW 3.5 mph - N/A   Clear
7:35 AM 32.0 °F 27.5 °F - N/A% 30.00 in 10.0 mi SSW 4.6 mph - N/A   Clear
7:55 AM 32.0 °F 28.7 °F 32.0 °F 100% 30.00 in 10.0 mi SSW 3.5 mph - N/A   Clear
8:15 AM 33.8 °F 28.6 °F - N/A% 30.00 in 10.0 mi SSW 5.8 mph - N/A   Clear
8:35 AM 39.2 °F 35.0 °F 35.6 °F 87% 30.01 in 10.0 mi SSW 5.8 mph - N/A   Clear
8:55 AM 42.8 °F 39.3 °F 37.4 °F 81% - 10.0 mi SSW 5.8 mph - N/A   Clear
9:15 AM 48.2 °F - 39.2 °F 71% 30.02 in 10.0 mi SW 6.9 mph - N/A   Clear
9:35 AM 50.0 °F - 37.4 °F 62% 30.03 in 10.0 mi WSW 6.9 mph - N/A   Clear
9:55 AM 51.8 °F - 37.4 °F 58% 30.04 in 10.0 mi WSW 8.1 mph - N/A   Clear
10:15 AM 53.6 °F - 39.2 °F 58% 30.05 in 10.0 mi WSW 8.1 mph - N/A   Clear
10:35 AM 57.2 °F - 39.2 °F 51% 30.04 in 10.0 mi WSW 4.6 mph - N/A   Clear
10:55 AM 59.0 °F - 41.0 °F 51% 30.04 in 10.0 mi WSW 6.9 mph - N/A   Clear
11:15 AM 60.8 °F - 41.0 °F 48% 30.03 in 10.0 mi West 6.9 mph - N/A   Clear
11:35 AM 62.6 °F - 41.0 °F 45% 30.03 in 10.0 mi West 4.6 mph - N/A   Clear
11:55 AM 62.6 °F - 41.0 °F 45% 30.03 in 10.0 mi WSW 8.1 mph - N/A   Clear
12:15 PM 62.6 °F - 41.0 °F 45% 30.02 in 10.0 mi West 6.9 mph - N/A   Clear
12:35 PM 62.6 °F - 39.2 °F 42% 30.02 in 10.0 mi West 9.2 mph 16.1 mph N/A   Clear
12:55 PM 62.6 °F - 39.2 °F 42% 30.02 in 10.0 mi West 8.1 mph - N/A   Clear
1:15 PM 64.4 °F - 39.2 °F 40% 30.01 in 10.0 mi WSW 9.2 mph - N/A   Clear
1:35 PM 64.4 °F - 39.2 °F 40% 30.01 in 10.0 mi WSW 10.4 mph - N/A   Clear
1:55 PM 64.4 °F - 39.2 °F 40% - 10.0 mi WSW 9.2 mph - N/A   Clear
2:15 PM 64.4 °F - - N/A% 30.01 in 10.0 mi West 5.8 mph - N/A   Clear
2:35 PM - - - N/A% 30.01 in 10.0 mi West 6.9 mph - N/A   Clear
2:55 PM 64.4 °F - 41.0 °F 42% 30.02 in 10.0 mi SW 8.1 mph - N/A   Clear
3:15 PM 62.6 °F - 41.0 °F 45% 30.02 in 10.0 mi West 3.5 mph - N/A   Clear
3:35 PM 62.6 °F - 39.2 °F 42% 30.03 in 10.0 mi WSW 4.6 mph - N/A   Clear
3:55 PM 62.6 °F - 39.2 °F 42% 30.03 in 10.0 mi WSW 4.6 mph - N/A   Clear
4:15 PM 60.8 °F - 41.0 °F 48% 30.03 in 10.0 mi SW 4.6 mph - N/A   Clear
4:35 PM 57.2 °F - 39.2 °F 51% 30.04 in 10.0 mi Calm Calm - N/A   Clear
4:55 PM 51.8 °F - 39.2 °F 62% 30.05 in 1.0 mi Calm Calm - N/A   Clear
5:15 PM 48.2 °F - 39.2 °F 71% 30.06 in 1.0 mi Calm Calm - N/A   Clear
5:35 PM 46.4 °F - 39.2 °F 76% 30.07 in - Calm Calm - N/A   Clear
5:55 PM 44.6 °F - 39.2 °F 81% 30.08 in 10.0 mi Calm Calm - N/A   Clear
6:15 PM 44.6 °F - 41.0 °F 87% 30.09 in 10.0 mi North - - N/A   Clear
6:35 PM 42.8 °F - 37.4 °F 81% 30.10 in 10.0 mi Calm Calm - N/A   Clear
6:55 PM 39.2 °F - 39.2 °F 100% 30.11 in 10.0 mi Calm Calm - N/A   Clear
7:15 PM 42.8 °F - 39.2 °F 87% 30.12 in 10.0 mi Calm Calm - N/A   Clear
7:35 PM 41.0 °F - 39.2 °F 93% 30.13 in 10.0 mi Calm Calm - N/A   Clear
7:55 PM 39.2 °F - 35.6 °F 87% 30.13 in 10.0 mi Calm Calm - N/A   Clear
8:15 PM 39.2 °F - 37.4 °F 93% 30.14 in 10.0 mi Calm Calm - N/A   Clear
8:35 PM 39.2 °F - 39.2 °F 100% 30.14 in 10.0 mi Calm Calm - N/A   Clear
8:55 PM 37.4 °F - 35.6 °F 93% 30.15 in 10.0 mi Calm Calm - N/A   Clear
9:15 PM 37.4 °F - 37.4 °F 100% 30.16 in 10.0 mi Calm Calm - N/A   Clear
9:35 PM 37.4 °F 31.4 °F 37.4 °F 100% 30.17 in 10.0 mi NE 8.1 mph - N/A   Clear
9:55 PM 42.8 °F 41.1 °F 39.2 °F 87% 30.19 in 10.0 mi NE 3.5 mph - N/A   Clear
10:15 PM 42.8 °F 41.1 °F 37.4 °F 81% 30.20 in 10.0 mi NE 3.5 mph - N/A   Clear
10:35 PM 42.8 °F 41.1 °F 37.4 °F 81% 30.20 in 10.0 mi NE 3.5 mph - N/A   Clear
10:55 PM 41.0 °F - 37.4 °F 87% 30.21 in 10.0 mi Calm Calm - N/A   Clear
11:15 PM 41.0 °F - 37.4 °F 87% 30.21 in 10.0 mi Calm Calm - N/A   Clear
11:35 PM 41.0 °F - 37.4 °F 87% 30.21 in 10.0 mi Calm Calm - N/A   Clear
11:55 PM 41.0 °F - 37.4 °F 87% 30.22 in 10.0 mi Calm Calm - N/A   Clear